QPF
0.00 0.00 0.00 0.01 0.00 0.01 0.02 0.01 0.01 0.01 0.00 0.00 0.00 0.00 0.00 0.00 0.00 0.00 0.00 0.00 0.01 0.01 0.01 0.01 0.02 0.03 0.04 0.04 0.03 0.03 0.02 0.03 0.03 0.03 0.03 0.03 0.03 0.05 0.05 0.05 0.06 0.06 0.07 0.06
0.01 0.01 0.01 0.01 0.00 0.00 0.01 0.01 0.01 0.00 0.00 0.00 0.00 0.00 0.00 0.00 0.00 0.00 0.00 0.00 0.01 0.01 0.01 0.01 0.02 0.03 0.04 0.04 0.04 0.03 0.03 0.02 0.03 0.03 0.03 0.03 0.03 0.04 0.05 0.06 0.05 0.05 0.05 0.04
0.02 0.01 0.02 0.02 0.01 0.00 0.00 0.00 0.01 0.01 0.01 0.00 0.00 0.00 0.00 0.00 0.00 0.00 0.00 0.00 0.01 0.01 0.02 0.02 0.02 0.02 0.03 0.04 0.04 0.04 0.03 0.03 0.02 0.02 0.04 0.04 0.03 0.04 0.05 0.06 0.06 0.04 0.04 0.03
0.04 0.02 0.03 0.01 0.00 0.00 0.00 0.00 0.01 0.01 0.01 0.00 0.00 0.00 0.00 0.00 0.01 0.00 0.00 0.00 0.01 0.01 0.02 0.02 0.02 0.02 0.02 0.03 0.03 0.03 0.03 0.02 0.03 0.02 0.03 0.05 0.04 0.04 0.05 0.06 0.05 0.04 0.03 0.03
0.04 0.03 0.01 0.00 0.00 0.00 0.01 0.01 0.01 0.01 0.00 0.00 0.00 0.00 0.00 0.00 0.01 0.01 0.01 0.01 0.01 0.01 0.02 0.02 0.02 0.02 0.02 0.02 0.03 0.03 0.03 0.03 0.03 0.03 0.03 0.03 0.04 0.04 0.05 0.05 0.06 0.05 0.04 0.03
0.04 0.02 0.01 0.00 0.00 0.00 0.00 0.01 0.00 0.00 0.00 0.00 0.00 0.00 0.00 0.00 0.00 0.00 0.01 0.01 0.01 0.01 0.02 0.02 0.02 0.02 0.02 0.02 0.02 0.03 0.04 0.04 0.04 0.04 0.03 0.03 0.04 0.04 0.05 0.05 0.06 0.06 0.05 0.03
0.03 0.02 0.00 0.00 0.00 0.00 0.01 0.00 0.00 0.00 0.00 0.00 0.01 0.01 0.00 0.00 0.00 0.00 0.01 0.01 0.01 0.01 0.01 0.01 0.01 0.01 0.01 0.02 0.02 0.03 0.03 0.03 0.03 0.03 0.03 0.03 0.04 0.04 0.04 0.04 0.04 0.05 0.05 0.03
0.02 0.02 0.01 0.00 0.00 0.00 0.00 0.00 0.00 0.00 0.00 0.00 0.00 0.00 0.00 0.00 0.00 0.01 0.01 0.01 0.01 0.01 0.01 0.01 0.01 0.01 0.02 0.02 0.03 0.02 0.03 0.03 0.03 0.03 0.03 0.03 0.03 0.04 0.04 0.04 0.04 0.04 0.04 0.03
0.01 0.01 0.01 0.00 0.00 0.00 0.00 0.00 0.00 0.00 0.00 0.00 0.00 0.01 0.01 0.01 0.01 0.01 0.01 0.01 0.01 0.01 0.01 0.01 0.01 0.02 0.02 0.02 0.02 0.02 0.02 0.03 0.03 0.03 0.03 0.02 0.02 0.03 0.04 0.04 0.05 0.05 0.05 0.04
0.01 0.01 0.01 0.01 0.01 0.00 0.00 0.00 0.00 0.00 0.00 0.00 0.00 0.00 0.00 0.01 0.01 0.01 0.01 0.01 0.01 0.01 0.01 0.01 0.01 0.01 0.02 0.02 0.02 0.01 0.02 0.02 0.02 0.02 0.03 0.03 0.02 0.02 0.03 0.04 0.04 0.05 0.06 0.05
0.01 0.00 0.00 0.00 0.00 0.01 0.00 0.00 0.00 0.00 0.00 0.00 0.00 0.00 0.01 0.01 0.01 0.01 0.01 0.01 0.01 0.01 0.01 0.01 0.01 0.01 0.01 0.02 0.01 0.01 0.02 0.02 0.02 0.02 0.02 0.02 0.03 0.03 0.03 0.04 0.04 0.04 0.04 0.05
0.01 0.00 0.00 0.00 0.00 0.00 0.00 0.00 0.00 0.00 0.00 0.00 0.00 0.00 0.00 0.00 0.00 0.00 0.01 0.01 0.01 0.01 0.01 0.01 0.01 0.01 0.01 0.01 0.01 0.01 0.02 0.02 0.02 0.02 0.02 0.02 0.02 0.03 0.03 0.04 0.04 0.04 0.04 0.04
0.00 0.00 0.00 0.00 0.00 0.00 0.00 0.00 0.00 0.00 0.00 0.00 0.00 0.00 0.00 0.00 0.00 0.00 0.01 0.00 0.01 0.01 0.01 0.01 0.01 0.01 0.01 0.01 0.01 0.01 0.01 0.01 0.01 0.01 0.02 0.02 0.02 0.02 0.03 0.03 0.04 0.04 0.04 0.04
0.00 0.00 0.00 0.00 0.00 0.00 0.00 0.00 0.00 0.00 0.00 0.00 0.00 0.00 0.00 0.00 0.00 0.00 0.01 0.01 0.01 0.01 0.01 0.01 0.01 0.01 0.01 0.01 0.01 0.01 0.01 0.01 0.01 0.02 0.02 0.02 0.02 0.02 0.02 0.02 0.03 0.03 0.04 0.04
0.00 0.00 0.00 0.00 0.00 0.00 0.00 0.00 0.00 0.00 0.00 0.00 0.00 0.00 0.00 0.00 0.00 0.00 0.00 0.00 0.00 0.01 0.01 0.01 0.01 0.01 0.01 0.01 0.01 0.01 0.01 0.01 0.01 0.01 0.02 0.02 0.02 0.02 0.02 0.02 0.02 0.02 0.03 0.03
0.00 0.00 0.00 0.00 0.00 0.00 0.00 0.00 0.00 0.00 0.00 0.00 0.00 0.00 0.00 0.00 0.00 0.00 0.00 0.00 0.01 0.01 0.01 0.01 0.01 0.01 0.01 0.01 0.01 0.01 0.01 0.01 0.02 0.02 0.02 0.02 0.02 0.02 0.02 0.02 0.02 0.02 0.02 0.02
0.00 0.00 0.01 0.01 0.01 0.00 0.00 0.00 0.00 0.00 0.00 0.00 0.00 0.00 0.00 0.00 0.00 0.00 0.00 0.00 0.00 0.01 0.01 0.01 0.01 0.01 0.01 0.01 0.02 0.02 0.02 0.02 0.02 0.02 0.03 0.03 0.03 0.02 0.02 0.02 0.02 0.02 0.02 0.02
0.00 0.01 0.01 0.01 0.01 0.01 0.01 0.01 0.01 0.00 0.00 0.00 0.00 0.00 0.00 0.00 0.00 0.00 0.00 0.00 0.00 0.00 0.01 0.01 0.01 0.01 0.01 0.01 0.02 0.02 0.02 0.02 0.02 0.02 0.03 0.03 0.03 0.02 0.02 0.02 0.01 0.01 0.01 0.01
0.01 0.01 0.01 0.01 0.01 0.01 0.01 0.01 0.01 0.00 0.00 0.00 0.00 0.00 0.00 0.00 0.00 0.00 0.00 0.00 0.00 0.01 0.01 0.01 0.01 0.01 0.01 0.01 0.02 0.02 0.02 0.02 0.02 0.02 0.02 0.02 0.02 0.02 0.02 0.02 0.02 0.02 0.01 0.01
0.01 0.01 0.01 0.01 0.01 0.01 0.01 0.01 0.00 0.00 0.00 0.00 0.00 0.00 0.00 0.00 0.00 0.00 0.00 0.00 0.00 0.01 0.01 0.01 0.01 0.01 0.01 0.01 0.02 0.02 0.02 0.02 0.02 0.02 0.02 0.02 0.02 0.02 0.02 0.02 0.02 0.02 0.01 0.01
0.01 0.01 0.01 0.01 0.01 0.01 0.01 0.00 0.00 0.00 0.00 0.00 0.00 0.00 0.00 0.00 0.00 0.00 0.00 0.00 0.00 0.00 0.01 0.01 0.01 0.01 0.02 0.02 0.02 0.02 0.02 0.02 0.02 0.02 0.02 0.02 0.02 0.02 0.02 0.02 0.02 0.02 0.01 0.01
0.01 0.01 0.01 0.01 0.01 0.01 0.00 0.00 0.00 0.00 0.00 0.00 0.00 0.00 0.00 0.00 0.00 0.00 0.00 0.00 0.00 0.01 0.01 0.01 0.01 0.02 0.02 0.02 0.02 0.02 0.02 0.02 0.02 0.01 0.01 0.02 0.02 0.02 0.02 0.01 0.01 0.01 0.02 0.02
0.01 0.01 0.01 0.01 0.00 0.00 0.00 0.00 0.00 0.00 0.00 0.00 0.00 0.00 0.00 0.00 0.00 0.00 0.00 0.00 0.00 0.01 0.01 0.01 0.02 0.02 0.02 0.02 0.01 0.02 0.02 0.02 0.02 0.01 0.01 0.01 0.02 0.02 0.02 0.02 0.02 0.02 0.02 0.02
0.01 0.01 0.00 0.00 0.00 0.00 0.00 0.00 0.00 0.00 0.00 0.00 0.00 0.00 0.00 0.00 0.00 0.00 0.00 0.00 0.01 0.01 0.01 0.01 0.02 0.02 0.02 0.01 0.01 0.01 0.01 0.01 0.02 0.02 0.02 0.02 0.02 0.02 0.02 0.02 0.02 0.02 0.02 0.02
0.01 0.01 0.01 0.01 0.01 0.01 0.00 0.00 0.00 0.00 0.00 0.00 0.00 0.00 0.00 0.00 0.01 0.01 0.01 0.01 0.01 0.01 0.01 0.02 0.02 0.02 0.02 0.01 0.01 0.01 0.01 0.01 0.02 0.02 0.02 0.02 0.02 0.02 0.02 0.02 0.02 0.02 0.01 0.01
0.01 0.01 0.01 0.01 0.01 0.01 0.01 0.00 0.00 0.00 0.00 0.00 0.00 0.00 0.00 0.01 0.01 0.01 0.01 0.01 0.01 0.01 0.01 0.01 0.02 0.02 0.02 0.02 0.02 0.02 0.02 0.02 0.02 0.02 0.02 0.02 0.02 0.02 0.01 0.01 0.01 0.01 0.02 0.02
0.01 0.01 0.01 0.01 0.01 0.01 0.01 0.01 0.00 0.00 0.00 0.00 0.01 0.01 0.01 0.01 0.01 0.01 0.01 0.01 0.01 0.01 0.01 0.01 0.01 0.01 0.02 0.02 0.02 0.02 0.02 0.02 0.02 0.02 0.02 0.02 0.02 0.02 0.02 0.02 0.02 0.02 0.02 0.02
MSLP
1033.84 1034.57 1035.19 1035.64 1035.86 1035.84 1035.54 1034.98 1034.19 1033.22 1032.14 1030.99 1029.86 1028.78 1027.81 1026.94 1026.18 1025.50 1024.89 1024.29 1023.67 1022.98 1022.19 1021.26 1020.19 1018.97 1017.60 1016.12 1014.55 1012.97 1011.44 1010.01 1008.77 1007.77 1007.04 1006.61 1006.48 1006.61 1006.95 1007.46 1008.08 1008.75 1009.43 1010.10
1034.12 1034.62 1034.95 1035.09 1035.02 1034.72 1034.23 1033.56 1032.76 1031.86 1030.93 1029.99 1029.10 1028.26 1027.49 1026.79 1026.15 1025.54 1024.96 1024.36 1023.72 1023.02 1022.24 1021.34 1020.31 1019.15 1017.86 1016.44 1014.94 1013.41 1011.90 1010.47 1009.21 1008.16 1007.38 1006.89 1006.70 1006.78 1007.08 1007.57 1008.18 1008.86 1009.56 1010.25
1034.22 1034.46 1034.50 1034.32 1033.96 1033.42 1032.77 1032.03 1031.25 1030.48 1029.73 1029.03 1028.39 1027.80 1027.24 1026.70 1026.17 1025.63 1025.06 1024.44 1023.78 1023.06 1022.27 1021.40 1020.42 1019.34 1018.14 1016.83 1015.43 1013.98 1012.53 1011.15 1009.90 1008.83 1008.02 1007.48 1007.22 1007.24 1007.50 1007.95 1008.53 1009.18 1009.87 1010.57
1034.08 1034.06 1033.81 1033.36 1032.74 1032.02 1031.25 1030.49 1029.77 1029.14 1028.59 1028.13 1027.74 1027.37 1027.01 1026.62 1026.19 1025.68 1025.12 1024.48 1023.79 1023.06 1022.26 1021.42 1020.51 1019.52 1018.43 1017.26 1015.99 1014.67 1013.33 1012.02 1010.82 1009.77 1008.95 1008.38 1008.07 1008.03 1008.23 1008.61 1009.14 1009.75 1010.40 1011.05
1033.66 1033.41 1032.92 1032.24 1031.43 1030.58 1029.74 1028.99 1028.37 1027.88 1027.53 1027.28 1027.10 1026.94 1026.74 1026.47 1026.11 1025.64 1025.08 1024.43 1023.72 1022.98 1022.20 1021.40 1020.57 1019.69 1018.74 1017.72 1016.61 1015.44 1014.23 1013.04 1011.92 1010.93 1010.12 1009.54 1009.20 1009.10 1009.23 1009.54 1009.99 1010.53 1011.11 1011.70
1032.94 1032.50 1031.82 1030.99 1030.06 1029.14 1028.29 1027.59 1027.06 1026.71 1026.52 1026.46 1026.45 1026.44 1026.37 1026.19 1025.89 1025.46 1024.90 1024.26 1023.55 1022.83 1022.09 1021.36 1020.62 1019.86 1019.06 1018.19 1017.25 1016.25 1015.20 1014.14 1013.12 1012.20 1011.44 1010.86 1010.50 1010.36 1010.42 1010.65 1011.01 1011.46 1011.95 1012.45
1031.90 1031.33 1030.56 1029.64 1028.67 1027.74 1026.93 1026.29 1025.86 1025.63 1025.57 1025.63 1025.75 1025.85 1025.86 1025.76 1025.51 1025.11 1024.59 1023.98 1023.31 1022.63 1021.96 1021.32 1020.68 1020.05 1019.38 1018.67 1017.89 1017.04 1016.14 1015.22 1014.32 1013.49 1012.78 1012.23 1011.87 1011.70 1011.70 1011.85 1012.12 1012.47 1012.86 1013.25
1030.57 1029.96 1029.15 1028.23 1027.29 1026.41 1025.67 1025.12 1024.78 1024.64 1024.67 1024.82 1025.01 1025.17 1025.24 1025.19 1024.99 1024.65 1024.18 1023.63 1023.04 1022.44 1021.86 1021.30 1020.78 1020.25 1019.71 1019.13 1018.49 1017.77 1017.01 1016.21 1015.42 1014.68 1014.04 1013.54 1013.18 1012.99 1012.95 1013.04 1013.23 1013.48 1013.77 1014.06
1029.03 1028.43 1027.67 1026.82 1025.96 1025.18 1024.54 1024.08 1023.83 1023.76 1023.85 1024.04 1024.26 1024.45 1024.56 1024.55 1024.41 1024.13 1023.74 1023.28 1022.78 1022.28 1021.80 1021.35 1020.92 1020.49 1020.04 1019.55 1019.01 1018.40 1017.73 1017.04 1016.35 1015.70 1015.13 1014.67 1014.34 1014.15 1014.08 1014.12 1014.24 1014.42 1014.62 1014.83
1027.37 1026.84 1026.19 1025.46 1024.74 1024.10 1023.58 1023.23 1023.05 1023.03 1023.15 1023.35 1023.58 1023.78 1023.91 1023.94 1023.85 1023.65 1023.35 1023.00 1022.61 1022.21 1021.82 1021.46 1021.10 1020.73 1020.34 1019.91 1019.42 1018.88 1018.29 1017.67 1017.06 1016.49 1015.99 1015.58 1015.29 1015.11 1015.03 1015.04 1015.12 1015.23 1015.37 1015.51
1025.72 1025.31 1024.80 1024.24 1023.70 1023.21 1022.83 1022.58 1022.48 1022.50 1022.63 1022.83 1023.05 1023.24 1023.38 1023.43 1023.39 1023.27 1023.06 1022.81 1022.52 1022.22 1021.91 1021.61 1021.29 1020.95 1020.58 1020.17 1019.70 1019.19 1018.65 1018.09 1017.54 1017.04 1016.61 1016.27 1016.02 1015.86 1015.79 1015.78 1015.83 1015.90 1015.99 1016.08
1024.22 1023.94 1023.60 1023.23 1022.87 1022.56 1022.32 1022.19 1022.15 1022.21 1022.34 1022.52 1022.72 1022.89 1023.02 1023.09 1023.09 1023.03 1022.90 1022.72 1022.51 1022.28 1022.02 1021.75 1021.44 1021.11 1020.73 1020.30 1019.84 1019.34 1018.82 1018.30 1017.82 1017.38 1017.02 1016.73 1016.53 1016.41 1016.35 1016.34 1016.37 1016.41 1016.45 1016.51
1022.96 1022.83 1022.66 1022.48 1022.31 1022.17 1022.08 1022.04 1022.07 1022.16 1022.29 1022.45 1022.61 1022.75 1022.87 1022.93 1022.95 1022.91 1022.83 1022.70 1022.53 1022.33 1022.09 1021.82 1021.50 1021.14 1020.74 1020.29 1019.82 1019.32 1018.83 1018.36 1017.94 1017.57 1017.27 1017.04 1016.89 1016.79 1016.75 1016.73 1016.74 1016.75 1016.76 1016.78
1022.02 1022.03 1022.02 1022.02 1022.02 1022.03 1022.07 1022.13 1022.22 1022.33 1022.45 1022.58 1022.69 1022.79 1022.86 1022.90 1022.90 1022.86 1022.78 1022.66 1022.49 1022.29 1022.04 1021.74 1021.40 1021.01 1020.58 1020.13 1019.65 1019.18 1018.72 1018.30 1017.94 1017.64 1017.41 1017.24 1017.12 1017.05 1017.01 1016.98 1016.95 1016.93 1016.90 1016.87
1021.43 1021.55 1021.68 1021.82 1021.97 1022.12 1022.26 1022.40 1022.53 1022.64 1022.74 1022.83 1022.89 1022.92 1022.93 1022.91 1022.86 1022.78 1022.67 1022.52 1022.32 1022.09 1021.81 1021.48 1021.11 1020.70 1020.26 1019.80 1019.35 1018.91 1018.51 1018.16 1017.87 1017.64 1017.46 1017.34 1017.26 1017.20 1017.14 1017.09 1017.02 1016.95 1016.87 1016.80
1021.15 1021.36 1021.60 1021.85 1022.11 1022.35 1022.57 1022.76 1022.90 1023.01 1023.07 1023.09 1023.08 1023.03 1022.96 1022.86 1022.74 1022.59 1022.41 1022.20 1021.96 1021.68 1021.36 1021.00 1020.61 1020.19 1019.76 1019.33 1018.92 1018.55 1018.22 1017.94 1017.73 1017.57 1017.45 1017.36 1017.30 1017.23 1017.15 1017.06 1016.94 1016.81 1016.68 1016.57
1021.12 1021.39 1021.71 1022.04 1022.36 1022.66 1022.91 1023.11 1023.24 1023.31 1023.31 1023.26 1023.16 1023.02 1022.85 1022.66 1022.44 1022.21 1021.96 1021.68 1021.38 1021.05 1020.70 1020.32 1019.92 1019.51 1019.12 1018.74 1018.39 1018.09 1017.84 1017.65 1017.50 1017.40 1017.33 1017.27 1017.20 1017.12 1017.01 1016.87 1016.71 1016.53 1016.35 1016.19
1021.27 1021.58 1021.93 1022.29 1022.64 1022.95 1023.19 1023.36 1023.44 1023.45 1023.38 1023.24 1023.04 1022.80 1022.54 1022.25 1021.95 1021.63 1021.30 1020.96 1020.61 1020.24 1019.86 1019.47 1019.09 1018.71 1018.36 1018.04 1017.77 1017.54 1017.37 1017.25 1017.16 1017.10 1017.06 1017.01 1016.93 1016.83 1016.68 1016.51 1016.31 1016.09 1015.88 1015.70
1021.49 1021.81 1022.17 1022.53 1022.86 1023.13 1023.33 1023.43 1023.44 1023.36 1023.20 1022.97 1022.68 1022.35 1022.00 1021.63 1021.25 1020.87 1020.48 1020.09 1019.70 1019.31 1018.92 1018.53 1018.17 1017.82 1017.52 1017.26 1017.05 1016.88 1016.77 1016.70 1016.65 1016.62 1016.58 1016.53 1016.44 1016.32 1016.15 1015.96 1015.74 1015.51 1015.30 1015.13
1021.71 1022.03 1022.37 1022.69 1022.97 1023.17 1023.28 1023.30 1023.21 1023.04 1022.78 1022.46 1022.10 1021.70 1021.28 1020.85 1020.42 1020.00 1019.57 1019.15 1018.74 1018.34 1017.94 1017.57 1017.22 1016.91 1016.63 1016.41 1016.24 1016.11 1016.03 1015.98 1015.94 1015.91 1015.87 1015.81 1015.71 1015.58 1015.41 1015.21 1015.01 1014.80 1014.62 1014.49
1021.89 1022.19 1022.48 1022.74 1022.93 1023.04 1023.05 1022.95 1022.77 1022.50 1022.16 1021.77 1021.35 1020.90 1020.45 1019.99 1019.54 1019.10 1018.66 1018.24 1017.82 1017.41 1017.01 1016.64 1016.30 1015.99 1015.73 1015.51 1015.34 1015.22 1015.13 1015.07 1015.03 1014.99 1014.93 1014.85 1014.75 1014.62 1014.46 1014.30 1014.13 1013.98 1013.86 1013.78
1021.99 1022.25 1022.49 1022.66 1022.75 1022.75 1022.65 1022.45 1022.17 1021.82 1021.42 1020.98 1020.52 1020.06 1019.60 1019.14 1018.70 1018.27 1017.84 1017.41 1016.99 1016.57 1016.17 1015.78 1015.42 1015.10 1014.81 1014.57 1014.38 1014.22 1014.10 1014.01 1013.94 1013.87 1013.79 1013.70 1013.60 1013.48 1013.36 1013.24 1013.13 1013.05 1013.00 1013.00
1022.02 1022.23 1022.39 1022.48 1022.47 1022.35 1022.15 1021.85 1021.49 1021.08 1020.63 1020.17 1019.71 1019.26 1018.82 1018.39 1017.97 1017.55 1017.13 1016.71 1016.29 1015.86 1015.43 1015.01 1014.61 1014.24 1013.90 1013.61 1013.36 1013.15 1012.98 1012.84 1012.73 1012.62 1012.53 1012.43 1012.34 1012.24 1012.16 1012.09 1012.05 1012.03 1012.06 1012.13
1021.98 1022.14 1022.23 1022.22 1022.10 1021.89 1021.59 1021.22 1020.80 1020.35 1019.89 1019.43 1018.99 1018.56 1018.16 1017.76 1017.37 1016.98 1016.57 1016.15 1015.70 1015.24 1014.77 1014.30 1013.84 1013.41 1013.00 1012.64 1012.32 1012.05 1011.82 1011.63 1011.47 1011.34 1011.22 1011.12 1011.04 1010.97 1010.92 1010.90 1010.91 1010.95 1011.03 1011.15
1021.91 1022.01 1022.01 1021.91 1021.71 1021.41 1021.04 1020.62 1020.16 1019.70 1019.24 1018.80 1018.39 1018.01 1017.64 1017.28 1016.92 1016.54 1016.13 1015.69 1015.22 1014.71 1014.18 1013.65 1013.12 1012.61 1012.13 1011.69 1011.31 1010.98 1010.70 1010.46 1010.26 1010.10 1009.97 1009.87 1009.79 1009.73 1009.71 1009.71 1009.75 1009.82 1009.92 1010.06
1021.81 1021.84 1021.77 1021.59 1021.31 1020.95 1020.54 1020.08 1019.61 1019.16 1018.72 1018.31 1017.94 1017.60 1017.26 1016.93 1016.58 1016.20 1015.77 1015.30 1014.78 1014.21 1013.62 1013.02 1012.42 1011.84 1011.30 1010.80 1010.37 1009.98 1009.66 1009.39 1009.17 1008.99 1008.85 1008.73 1008.64 1008.58 1008.55 1008.55 1008.58 1008.65 1008.74 1008.86
1021.70 1021.66 1021.52 1021.27 1020.94 1020.54 1020.10 1019.63 1019.17 1018.73 1018.32 1017.95 1017.61 1017.30 1016.98 1016.66 1016.30 1015.90 1015.44 1014.92 1014.35 1013.73 1013.08 1012.42 1011.76 1011.13 1010.54 1010.00 1009.53 1009.12 1008.77 1008.48 1008.24 1008.04 1007.88 1007.74 1007.63 1007.54 1007.48 1007.44 1007.43 1007.45 1007.50 1007.58
Thickness
5404 5410 5406 5406 5408 5403 5400 5403 5404 5414 5413 5428 5428 5426 5425 5424 5423 5423 5422 5423 5423 5424 5424 5426 5428 5431 5433 5436 5440 5444 5447 5450 5453 5455 5456 5458 5459 5460 5461 5462 5463 5463 5462 5463
5394 5401 5398 5400 5406 5404 5402 5401 5400 5404 5412 5421 5419 5416 5416 5416 5416 5417 5417 5418 5418 5418 5418 5419 5420 5422 5425 5427 5430 5434 5437 5440 5443 5445 5446 5447 5449 5450 5451 5452 5452 5452 5452 5452
5386 5384 5391 5397 5406 5404 5400 5399 5400 5404 5416 5414 5411 5413 5412 5412 5411 5411 5411 5412 5412 5412 5412 5412 5413 5415 5416 5419 5422 5425 5428 5430 5432 5434 5436 5437 5438 5439 5440 5441 5441 5441 5441 5441
5370 5374 5384 5414 5409 5406 5402 5401 5398 5402 5405 5405 5406 5406 5405 5404 5403 5404 5405 5405 5405 5405 5405 5405 5406 5407 5409 5411 5413 5415 5417 5420 5422 5424 5425 5426 5427 5428 5429 5430 5430 5430 5430 5430
5359 5362 5377 5400 5401 5396 5394 5398 5399 5397 5399 5398 5397 5395 5398 5401 5399 5398 5398 5398 5398 5398 5399 5398 5399 5400 5401 5402 5403 5405 5407 5409 5412 5413 5414 5415 5416 5417 5418 5419 5419 5420 5420 5420
5350 5358 5372 5402 5397 5391 5392 5394 5401 5395 5393 5390 5387 5386 5395 5397 5393 5391 5390 5390 5390 5391 5391 5391 5391 5391 5392 5393 5394 5396 5398 5400 5402 5403 5405 5405 5406 5406 5407 5408 5408 5408 5409 5409
5344 5348 5366 5386 5384 5384 5383 5394 5396 5389 5388 5383 5381 5384 5387 5385 5383 5382 5382 5382 5382 5383 5383 5383 5383 5382 5383 5384 5385 5387 5389 5390 5391 5393 5394 5395 5396 5397 5397 5397 5398 5398 5398 5399
5336 5342 5367 5378 5373 5376 5384 5387 5385 5382 5381 5378 5377 5377 5376 5375 5374 5373 5373 5373 5374 5374 5374 5374 5374 5374 5374 5375 5377 5378 5379 5380 5381 5383 5384 5386 5386 5386 5387 5387 5387 5387 5388 5389
5353 5369 5374 5369 5372 5376 5375 5375 5375 5373 5373 5371 5369 5368 5368 5367 5366 5365 5365 5365 5365 5365 5365 5366 5366 5366 5366 5368 5368 5369 5369 5370 5371 5373 5374 5376 5376 5377 5377 5377 5377 5378 5378 5380
5342 5357 5361 5362 5363 5365 5365 5365 5366 5365 5364 5362 5361 5360 5359 5358 5357 5356 5356 5356 5356 5356 5356 5357 5357 5357 5357 5358 5359 5360 5360 5361 5362 5364 5365 5366 5367 5368 5368 5368 5368 5369 5370 5371
5337 5349 5352 5358 5358 5359 5359 5357 5357 5357 5356 5355 5353 5352 5351 5350 5349 5348 5348 5347 5346 5346 5347 5347 5348 5348 5349 5349 5349 5350 5351 5352 5353 5355 5356 5357 5357 5358 5359 5359 5359 5360 5361 5362
5350 5353 5349 5356 5358 5354 5351 5351 5351 5349 5349 5348 5346 5345 5344 5342 5341 5339 5338 5338 5337 5337 5337 5338 5338 5339 5339 5340 5341 5341 5343 5344 5344 5345 5346 5347 5348 5349 5351 5351 5353 5353 5354 5356
5349 5349 5347 5349 5348 5347 5344 5344 5343 5342 5341 5340 5339 5337 5336 5334 5333 5331 5330 5329 5329 5329 5329 5329 5329 5330 5331 5332 5333 5333 5334 5335 5336 5337 5338 5339 5340 5341 5342 5343 5344 5346 5347 5348
5338 5337 5338 5339 5339 5338 5336 5335 5334 5333 5332 5332 5331 5329 5327 5325 5324 5323 5323 5323 5322 5321 5321 5321 5321 5321 5323 5324 5325 5326 5327 5328 5329 5329 5330 5331 5332 5333 5334 5335 5336 5337 5339 5341
5331 5330 5331 5331 5329 5327 5325 5324 5323 5323 5323 5323 5322 5320 5319 5317 5317 5316 5316 5315 5315 5314 5314 5313 5313 5314 5315 5316 5317 5318 5319 5320 5321 5322 5322 5323 5325 5326 5327 5328 5329 5330 5331 5333
5323 5321 5320 5320 5319 5318 5316 5315 5314 5315 5314 5314 5313 5312 5311 5310 5309 5309 5308 5307 5306 5307 5307 5306 5307 5308 5308 5308 5309 5310 5311 5313 5314 5314 5315 5316 5317 5318 5319 5320 5321 5322 5323 5325
5316 5316 5314 5313 5312 5311 5309 5308 5308 5308 5307 5306 5305 5305 5303 5302 5301 5301 5300 5299 5299 5299 5300 5300 5300 5301 5301 5301 5302 5302 5303 5304 5306 5306 5307 5309 5310 5311 5312 5313 5314 5315 5316 5318
5313 5313 5310 5308 5307 5305 5304 5302 5301 5300 5300 5299 5298 5296 5295 5294 5294 5294 5293 5291 5290 5291 5292 5292 5293 5294 5294 5295 5295 5295 5295 5296 5298 5299 5301 5302 5303 5305 5306 5307 5308 5309 5310 5311
5305 5304 5303 5301 5300 5298 5297 5296 5294 5293 5292 5291 5290 5289 5288 5287 5286 5285 5284 5283 5283 5284 5285 5286 5287 5287 5288 5288 5289 5289 5289 5290 5291 5292 5294 5296 5297 5298 5299 5300 5301 5302 5303 5304
5297 5296 5294 5293 5292 5290 5289 5289 5287 5285 5285 5284 5283 5282 5281 5280 5279 5277 5276 5276 5277 5278 5279 5279 5280 5280 5281 5282 5283 5283 5283 5284 5285 5286 5287 5288 5290 5291 5292 5293 5294 5295 5297 5298
5289 5288 5287 5284 5283 5282 5281 5280 5278 5278 5278 5278 5276 5276 5275 5274 5272 5271 5270 5271 5272 5272 5273 5274 5274 5274 5276 5277 5277 5277 5276 5277 5278 5279 5279 5280 5282 5283 5284 5286 5287 5288 5290 5291
5279 5278 5277 5275 5274 5273 5272 5271 5271 5271 5271 5271 5270 5269 5268 5267 5266 5265 5265 5265 5267 5268 5268 5268 5268 5270 5271 5271 5271 5271 5271 5271 5271 5272 5273 5274 5274 5275 5277 5278 5280 5282 5283 5284
5271 5270 5268 5266 5265 5264 5263 5263 5263 5263 5263 5263 5263 5262 5262 5261 5261 5261 5261 5261 5261 5262 5263 5263 5264 5266 5267 5265 5265 5265 5265 5265 5266 5266 5267 5268 5268 5269 5271 5272 5273 5275 5276 5276
5263 5262 5259 5258 5256 5256 5256 5257 5257 5257 5256 5257 5257 5257 5256 5256 5256 5256 5256 5257 5258 5258 5258 5259 5260 5262 5261 5260 5259 5259 5260 5260 5260 5261 5261 5262 5263 5264 5265 5266 5267 5268 5269 5270
5256 5254 5252 5251 5251 5251 5251 5251 5250 5250 5250 5251 5251 5251 5251 5251 5251 5251 5251 5251 5253 5253 5253 5254 5256 5256 5255 5254 5254 5254 5254 5255 5256 5256 5256 5257 5258 5259 5260 5261 5262 5263 5264 5265
5248 5247 5246 5245 5245 5245 5245 5245 5245 5245 5245 5245 5246 5246 5246 5246 5246 5246 5245 5246 5247 5248 5248 5248 5249 5249 5249 5248 5248 5249 5249 5250 5250 5250 5251 5252 5253 5253 5255 5256 5257 5258 5259 5260
5241 5241 5240 5240 5240 5240 5240 5240 5239 5239 5240 5240 5240 5240 5240 5240 5240 5240 5240 5240 5241 5242 5243 5243 5243 5243 5243 5243 5243 5243 5244 5244 5245 5245 5246 5247 5248 5248 5250 5251 5252 5253 5254 5255